Location: Ch�risy
(50.2331°N, 2.9131°E)
Time: 02:04:35
(UTC+00:00)

Cosmos 1943 - Pass Details

Date: 17 January 2021
Orbit: 833 x 850 km, 71.0° (Epoch: 24 February)

Event Time Altitude Azimuth Distance (km) Brightness Sun altitude
Rises 18:19:23 0° 326° (NNW) 3,421 6.7 -18.9°
Reaches altitude 10° 18:21:57 10° 320° (NW) 2,480 6.0 -19.3°
Maximum altitude 18:27:15 42° 251° (WSW) 1,186 4.5 -20.2°
Drops below altitude 10° 18:32:31 10° 182° (S) 2,454 5.7 -21.0°
Sets 18:35:03 0° 176° (S) 3,381 6.4 -21.4°
